contact:dominique.lefevre@mio.osupytheas.fr, maurice.libes@osupytheas.fr, didier.mallarino@osupytheas.fr
Project:EMSO http://www.emso-fr.org/EMSO-France
Depth: 2436.0 m
Title:EMSO Ligure Ouest : Data MII capteur MICROCAT
DateTime_Computer,Latitude,Longitude,Temperature,Conductivity,Pressure,DateTime_Instrument
DateTime_Computer,Latitude,Longitude,degC,S m-1,dbar,DateTime_Instrument
2022-09-11T00:01:22Z,42.805,6.029,13.3015,4.60051,2470.273,2022-9-11T02:03:14Z
2022-09-11T00:04:26Z,42.805,6.029,13.3009,4.60053,2470.273,2022-9-11T02:06:17Z
2022-09-11T00:07:29Z,42.805,6.029,13.3012,4.60049,2470.31,2022-9-11T02:09:21Z
2022-09-11T00:10:32Z,42.805,6.029,13.3010,4.60049,2470.287,2022-9-11T02:12:24Z
2022-09-11T00:13:35Z,42.805,6.029,13.3009,4.60049,2470.25,2022-9-11T02:15:27Z
2022-09-11T00:16:38Z,42.805,6.029,13.3009,4.60059,2470.25,2022-9-11T02:18:30Z
2022-09-11T00:19:41Z,42.805,6.029,13.3016,4.60049,2470.273,2022-9-11T02:21:33Z
2022-09-11T00:22:44Z,42.805,6.029,13.3008,4.60052,2470.287,2022-9-11T02:24:36Z
2022-09-11T00:25:47Z,42.805,6.029,13.3015,4.60057,2470.273,2022-9-11T02:27:39Z
2022-09-11T00:28:51Z,42.805,6.029,13.3008,4.60056,2470.264,2022-9-11T02:30:42Z
2022-09-11T00:31:54Z,42.805,6.029,13.3007,4.60077,2470.25,2022-9-11T02:33:46Z
2022-09-11T00:34:57Z,42.805,6.029,13.3010,4.60052,2470.25,2022-9-11T02:36:49Z
2022-09-11T00:38:00Z,42.805,6.029,13.3011,4.60057,2470.264,2022-9-11T02:39:52Z
2022-09-11T00:41:03Z,42.805,6.029,13.3011,4.60051,2470.25,2022-9-11T02:42:55Z
2022-09-11T00:44:06Z,42.805,6.029,13.3011,4.60051,2470.25,2022-9-11T02:45:58Z
2022-09-11T00:47:09Z,42.805,6.029,13.3004,4.60052,2470.264,2022-9-11T02:49:01Z
2022-09-11T00:50:12Z,42.805,6.029,13.3014,4.60052,2470.25,2022-9-11T02:52:04Z
2022-09-11T00:53:15Z,42.805,6.029,13.3007,4.60049,2470.25,2022-9-11T02:55:07Z
2022-09-11T00:56:19Z,42.805,6.029,13.3007,4.60051,2470.227,2022-9-11T02:58:11Z
2022-09-11T00:59:22Z,42.805,6.029,13.3011,4.60049,2470.227,2022-9-11T03:01:14Z
2022-09-11T01:02:25Z,42.805,6.029,13.3003,4.60055,2470.203,2022-9-11T03:04:17Z
2022-09-11T01:05:28Z,42.805,6.029,13.3009,4.60049,2470.217,2022-9-11T03:07:20Z
2022-09-11T01:08:31Z,42.805,6.029,13.3011,4.60049,2470.24,2022-9-11T03:10:23Z
2022-09-11T01:11:34Z,42.805,6.029,13.3010,4.60049,2470.227,2022-9-11T03:13:26Z
2022-09-11T01:14:37Z,42.805,6.029,13.3004,4.60053,2470.203,2022-9-11T03:16:29Z
2022-09-11T01:17:40Z,42.805,6.029,13.3011,4.60052,2470.24,2022-9-11T03:19:32Z
2022-09-11T01:20:44Z,42.805,6.029,13.3014,4.60050,2470.203,2022-9-11T03:22:36Z
2022-09-11T01:23:47Z,42.805,6.029,13.3004,4.60055,2470.227,2022-9-11T03:25:39Z
2022-09-11T01:26:50Z,42.805,6.029,13.3007,4.60058,2470.227,2022-9-11T03:28:42Z
2022-09-11T01:29:53Z,42.805,6.029,13.3013,4.60060,2470.264,2022-9-11T03:31:45Z
2022-09-11T01:32:56Z,42.805,6.029,13.3014,4.60067,2470.25,2022-9-11T03:34:48Z
2022-09-11T01:35:59Z,42.805,6.029,13.3006,4.60058,2470.217,2022-9-11T03:37:51Z
2022-09-11T01:39:02Z,42.805,6.029,13.3011,4.60058,2470.217,2022-9-11T03:40:54Z
2022-09-11T01:42:05Z,42.805,6.029,13.3010,4.60066,2470.194,2022-9-11T03:43:57Z
2022-09-11T01:45:09Z,42.805,6.029,13.3009,4.60067,2470.24,2022-9-11T03:47:01Z
2022-09-11T01:48:12Z,42.805,6.029,13.3006,4.60086,2470.227,2022-9-11T03:50:04Z
2022-09-11T01:51:15Z,42.805,6.029,13.3006,4.60069,2470.217,2022-9-11T03:53:07Z
2022-09-11T01:54:18Z,42.805,6.029,13.3008,4.60060,2470.24,2022-9-11T03:56:10Z
2022-09-11T01:57:21Z,42.805,6.029,13.3006,4.60067,2470.203,2022-9-11T03:59:13Z
2022-09-11T02:00:24Z,42.805,6.029,13.3008,4.60074,2470.203,2022-9-11T04:02:16Z
2022-09-11T02:03:27Z,42.805,6.029,13.3008,4.60074,2470.227,2022-9-11T04:05:19Z
2022-09-11T02:06:30Z,42.805,6.029,13.3004,4.60073,2470.227,2022-9-11T04:08:22Z
2022-09-11T02:09:34Z,42.805,6.029,13.3004,4.60064,2470.194,2022-9-11T04:11:25Z
2022-09-11T02:12:37Z,42.805,6.029,13.3007,4.60070,2470.203,2022-9-11T04:14:29Z
2022-09-11T02:15:40Z,42.805,6.029,13.3011,4.60068,2470.203,2022-9-11T04:17:32Z
2022-09-11T02:18:43Z,42.805,6.029,13.3006,4.60062,2470.227,2022-9-11T04:20:35Z
2022-09-11T02:21:46Z,42.805,6.029,13.3005,4.60081,2470.194,2022-9-11T04:23:38Z
2022-09-11T02:24:49Z,42.805,6.029,13.3009,4.60077,2470.171,2022-9-11T04:26:41Z
2022-09-11T02:27:52Z,42.805,6.029,13.3008,4.60071,2470.264,2022-9-11T04:29:44Z
2022-09-11T02:30:55Z,42.805,6.029,13.3009,4.60077,2470.217,2022-9-11T04:32:47Z
2022-09-11T02:33:59Z,42.805,6.029,13.3009,4.60069,2470.18,2022-9-11T04:35:50Z
2022-09-11T02:37:02Z,42.805,6.029,13.3007,4.60068,2470.18,2022-9-11T04:38:54Z
2022-09-11T02:40:05Z,42.805,6.029,13.3006,4.60071,2470.24,2022-9-11T04:41:57Z
2022-09-11T02:43:08Z,42.805,6.029,13.3006,4.60060,2470.18,2022-9-11T04:45:00Z
2022-09-11T02:46:11Z,42.805,6.029,13.3008,4.60056,2470.217,2022-9-11T04:48:03Z
2022-09-11T02:49:14Z,42.805,6.029,13.3004,4.60065,2470.203,2022-9-11T04:51:06Z
2022-09-11T02:52:17Z,42.805,6.029,13.3006,4.60067,2470.24,2022-9-11T04:54:09Z
2022-09-11T02:55:20Z,42.805,6.029,13.3007,4.60071,2470.227,2022-9-11T04:57:12Z
2022-09-11T02:58:23Z,42.805,6.029,13.3009,4.60071,2470.217,2022-9-11T05:00:15Z
2022-09-11T03:01:27Z,42.805,6.029,13.3008,4.60071,2470.203,2022-9-11T05:03:18Z
2022-09-11T03:04:30Z,42.805,6.029,13.3006,4.60073,2470.203,2022-9-11T05:06:22Z
2022-09-11T03:07:33Z,42.805,6.029,13.3005,4.60069,2470.227,2022-9-11T05:09:25Z
2022-09-11T03:10:36Z,42.805,6.029,13.3008,4.60067,2470.203,2022-9-11T05:12:28Z
2022-09-11T03:13:39Z,42.805,6.029,13.3008,4.60074,2470.217,2022-9-11T05:15:31Z
2022-09-11T03:16:42Z,42.805,6.029,13.3008,4.60077,2470.25,2022-9-11T05:18:34Z
2022-09-11T03:19:45Z,42.805,6.029,13.3009,4.60070,2470.227,2022-9-11T05:21:37Z
2022-09-11T03:22:48Z,42.805,6.029,13.3007,4.60068,2470.203,2022-9-11T05:24:40Z
2022-09-11T03:25:52Z,42.805,6.029,13.3006,4.60068,2470.217,2022-9-11T05:27:43Z
2022-09-11T03:28:55Z,42.805,6.029,13.3006,4.60067,2470.24,2022-9-11T05:30:47Z
2022-09-11T03:31:58Z,42.805,6.029,13.3011,4.60081,2470.24,2022-9-11T05:33:50Z
2022-09-11T03:35:01Z,42.805,6.029,13.3007,4.60098,2470.203,2022-9-11T05:36:53Z
2022-09-11T03:38:04Z,42.805,6.029,13.3006,4.60092,2470.25,2022-9-11T05:39:56Z
2022-09-11T03:41:07Z,42.805,6.029,13.3005,4.60084,2470.227,2022-9-11T05:42:59Z
2022-09-11T03:44:10Z,42.805,6.029,13.3009,4.60087,2470.18,2022-9-11T05:46:02Z
2022-09-11T03:47:13Z,42.805,6.029,13.3005,4.60089,2470.25,2022-9-11T05:49:05Z
2022-09-11T03:50:16Z,42.805,6.029,13.3005,4.60090,2470.227,2022-9-11T05:52:08Z
2022-09-11T03:53:20Z,42.805,6.029,13.3011,4.60140,2470.24,2022-9-11T05:55:12Z
2022-09-11T03:56:23Z,42.805,6.029,13.3011,4.60129,2470.217,2022-9-11T05:58:15Z
2022-09-11T03:59:26Z,42.805,6.029,13.3011,4.60122,2470.24,2022-9-11T06:01:18Z
2022-09-11T04:02:29Z,42.805,6.029,13.3009,4.60174,2470.264,2022-9-11T06:04:21Z
2022-09-11T04:05:32Z,42.805,6.029,13.3006,4.60104,2470.227,2022-9-11T06:07:24Z
2022-09-11T04:08:35Z,42.805,6.029,13.3008,4.60097,2470.264,2022-9-11T06:10:27Z
2022-09-11T04:11:38Z,42.805,6.029,13.3007,4.60099,2470.25,2022-9-11T06:13:30Z
2022-09-11T04:14:41Z,42.805,6.029,13.3005,4.60091,2470.31,2022-9-11T06:16:33Z
2022-09-11T04:17:45Z,42.805,6.029,13.3006,4.60111,2470.264,2022-9-11T06:19:37Z
2022-09-11T04:20:48Z,42.805,6.029,13.3009,4.60132,2470.264,2022-9-11T06:22:40Z
2022-09-11T04:23:51Z,42.805,6.029,13.3006,4.60112,2470.264,2022-9-11T06:25:43Z
2022-09-11T04:26:54Z,42.805,6.029,13.3009,4.60089,2470.25,2022-9-11T06:28:46Z
2022-09-11T04:29:57Z,42.805,6.029,13.3011,4.60143,2470.273,2022-9-11T06:31:49Z
2022-09-11T04:33:00Z,42.805,6.029,13.3010,4.60137,2470.31,2022-9-11T06:34:52Z
2022-09-11T04:36:03Z,42.805,6.029,13.3007,4.60157,2470.25,2022-9-11T06:37:55Z
2022-09-11T04:39:06Z,42.805,6.029,13.3009,4.60135,2470.273,2022-9-11T06:40:58Z
2022-09-11T04:42:10Z,42.805,6.029,13.3005,4.60127,2470.273,2022-9-11T06:44:02Z
2022-09-11T04:45:13Z,42.805,6.029,13.3008,4.60165,2470.297,2022-9-11T06:47:05Z
2022-09-11T04:48:16Z,42.805,6.029,13.3005,4.60110,2470.287,2022-9-11T06:50:08Z
2022-09-11T04:51:19Z,42.805,6.029,13.3008,4.60077,2470.31,2022-9-11T06:53:11Z
2022-09-11T04:54:22Z,42.805,6.029,13.3015,4.60078,2470.25,2022-9-11T06:56:14Z
2022-09-11T04:57:25Z,42.805,6.029,13.3019,4.60106,2470.31,2022-9-11T06:59:17Z
2022-09-11T05:00:28Z,42.805,6.029,13.3022,4.60110,2470.273,2022-9-11T07:02:20Z
2022-09-11T05:03:31Z,42.805,6.029,13.3029,4.60084,2470.334,2022-9-11T07:05:23Z
2022-09-11T05:06:35Z,42.805,6.029,13.3063,4.60096,2470.334,2022-9-11T07:08:26Z
2022-09-11T05:09:38Z,42.805,6.029,13.3039,4.60082,2470.273,2022-9-11T07:11:30Z
2022-09-11T05:12:41Z,42.805,6.029,13.3028,4.60102,2470.297,2022-9-11T07:14:33Z
2022-09-11T05:15:44Z,42.805,6.029,13.3104,4.60092,2470.334,2022-9-11T07:17:36Z
2022-09-11T05:18:47Z,42.805,6.029,13.3108,4.60090,2470.297,2022-9-11T07:20:39Z
2022-09-11T05:21:50Z,42.805,6.029,13.3056,4.60095,2470.31,2022-9-11T07:23:42Z
2022-09-11T05:24:53Z,42.805,6.029,13.3043,4.60088,2470.343,2022-9-11T07:26:45Z
2022-09-11T05:27:56Z,42.805,6.029,13.3040,4.60077,2470.297,2022-9-11T07:29:48Z
2022-09-11T05:30:59Z,42.805,6.029,13.3054,4.60081,2470.343,2022-9-11T07:32:51Z
2022-09-11T05:34:03Z,42.805,6.029,13.3048,4.60088,2470.357,2022-9-11T07:35:55Z
2022-09-11T05:37:06Z,42.805,6.029,13.3083,4.60087,2470.357,2022-9-11T07:38:58Z
2022-09-11T05:40:09Z,42.805,6.029,13.3063,4.60092,2470.353,2022-9-11T07:42:01Z
2022-09-11T05:43:12Z,42.805,6.029,13.3050,4.60097,2470.38,2022-9-11T07:45:04Z
2022-09-11T05:46:15Z,42.805,6.029,13.3062,4.60097,2470.38,2022-9-11T07:48:07Z
2022-09-11T05:49:18Z,42.805,6.029,13.3050,4.60089,2470.38,2022-9-11T07:51:10Z
2022-09-11T05:52:21Z,42.805,6.029,13.3044,4.60092,2470.357,2022-9-11T07:54:13Z
2022-09-11T05:55:24Z,42.805,6.029,13.3048,4.60117,2470.357,2022-9-11T07:57:16Z
2022-09-11T05:58:28Z,42.805,6.029,13.3058,4.60090,2470.39,2022-9-11T08:00:20Z
2022-09-11T06:01:31Z,42.805,6.029,13.3054,4.60099,2470.357,2022-9-11T08:03:23Z
2022-09-11T06:04:34Z,42.805,6.029,13.3046,4.60088,2470.366,2022-9-11T08:06:26Z
2022-09-11T06:07:37Z,42.805,6.029,13.3046,4.60081,2470.343,2022-9-11T08:09:29Z
2022-09-11T06:10:40Z,42.805,6.029,13.3043,4.60087,2470.366,2022-9-11T08:12:32Z
2022-09-11T06:13:43Z,42.805,6.029,13.3048,4.60099,2470.38,2022-9-11T08:15:35Z
2022-09-11T06:16:46Z,42.805,6.029,13.3051,4.60104,2470.404,2022-9-11T08:18:38Z
2022-09-11T06:19:49Z,42.805,6.029,13.3047,4.60092,2470.366,2022-9-11T08:21:41Z
2022-09-11T06:22:52Z,42.805,6.029,13.3041,4.60102,2470.366,2022-9-11T08:24:44Z
2022-09-11T06:25:56Z,42.805,6.029,13.3053,4.60085,2470.366,2022-9-11T08:27:48Z
2022-09-11T06:28:59Z,42.805,6.029,13.3052,4.60088,2470.366,2022-9-11T08:30:51Z
2022-09-11T06:32:02Z,42.805,6.029,13.3041,4.60090,2470.45,2022-9-11T08:33:54Z
2022-09-11T06:35:05Z,42.805,6.029,13.3042,4.60077,2470.474,2022-9-11T08:36:57Z
2022-09-11T06:38:08Z,42.805,6.029,13.3045,4.60082,2470.39,2022-9-11T08:40:00Z
2022-09-11T06:41:11Z,42.805,6.029,13.3056,4.60086,2470.437,2022-9-11T08:43:03Z
2022-09-11T06:44:14Z,42.805,6.029,13.3046,4.60084,2470.38,2022-9-11T08:46:06Z
2022-09-11T06:47:17Z,42.805,6.029,13.3060,4.60085,2470.39,2022-9-11T08:49:09Z
2022-09-11T06:50:21Z,42.805,6.029,13.3056,4.60072,2470.404,2022-9-11T08:52:13Z
2022-09-11T06:53:24Z,42.805,6.029,13.3047,4.60082,2470.427,2022-9-11T08:55:16Z
2022-09-11T06:56:27Z,42.805,6.029,13.3045,4.60091,2470.427,2022-9-11T08:58:19Z
2022-09-11T06:59:30Z,42.805,6.029,13.3048,4.60086,2470.427,2022-9-11T09:01:22Z
2022-09-11T07:02:33Z,42.805,6.029,13.3046,4.60084,2470.404,2022-9-11T09:04:25Z
2022-09-11T07:05:36Z,42.805,6.029,13.3055,4.60078,2470.38,2022-9-11T09:07:28Z
2022-09-11T07:08:39Z,42.805,6.029,13.3048,4.60080,2470.366,2022-9-11T09:10:31Z
2022-09-11T07:11:42Z,42.805,6.029,13.3048,4.60076,2470.366,2022-9-11T09:13:34Z
2022-09-11T07:14:46Z,42.805,6.029,13.3051,4.60084,2470.38,2022-9-11T09:16:38Z
2022-09-11T07:17:49Z,42.805,6.029,13.3058,4.60086,2470.404,2022-9-11T09:19:41Z
2022-09-11T07:20:52Z,42.805,6.029,13.3061,4.60081,2470.413,2022-9-11T09:22:44Z
2022-09-11T07:23:55Z,42.805,6.029,13.3049,4.60095,2470.413,2022-9-11T09:25:47Z
2022-09-11T07:26:58Z,42.805,6.029,13.3051,4.60085,2470.427,2022-9-11T09:28:50Z
2022-09-11T07:30:01Z,42.805,6.029,13.3044,4.60108,2470.427,2022-9-11T09:31:53Z
2022-09-11T07:33:04Z,42.805,6.029,13.3061,4.60084,2470.427,2022-9-11T09:34:56Z
2022-09-11T07:36:07Z,42.805,6.029,13.3043,4.60087,2470.437,2022-9-11T09:37:59Z
2022-09-11T07:39:11Z,42.805,6.029,13.3050,4.60083,2470.39,2022-9-11T09:41:03Z
2022-09-11T07:42:14Z,42.805,6.029,13.3076,4.60084,2470.413,2022-9-11T09:44:06Z
2022-09-11T07:45:17Z,42.805,6.029,13.3049,4.60074,2470.39,2022-9-11T09:47:09Z
2022-09-11T07:48:20Z,42.805,6.029,13.3046,4.60087,2470.39,2022-9-11T09:50:12Z
2022-09-11T07:51:23Z,42.805,6.029,13.3052,4.60084,2470.38,2022-9-11T09:53:15Z
2022-09-11T07:54:26Z,42.805,6.029,13.3056,4.60090,2470.39,2022-9-11T09:56:18Z
2022-09-11T07:57:29Z,42.805,6.029,13.3054,4.60079,2470.404,2022-9-11T09:59:21Z
2022-09-11T08:00:32Z,42.805,6.029,13.3046,4.60085,2470.427,2022-9-11T10:02:24Z
2022-09-11T08:03:36Z,42.805,6.029,13.3048,4.60081,2470.404,2022-9-11T10:05:27Z
2022-09-11T08:06:39Z,42.805,6.029,13.3030,4.60093,2470.413,2022-9-11T10:08:31Z
2022-09-11T08:09:42Z,42.805,6.029,13.3021,4.60098,2470.427,2022-9-11T10:11:34Z
2022-09-11T08:12:45Z,42.805,6.029,13.3099,4.60091,2470.343,2022-9-11T10:14:37Z
2022-09-11T08:15:48Z,42.805,6.029,13.3019,4.60104,2470.404,2022-9-11T10:17:40Z
2022-09-11T08:18:51Z,42.805,6.029,13.3082,4.60084,2470.413,2022-9-11T10:20:43Z
2022-09-11T08:21:54Z,42.805,6.029,13.3023,4.60088,2470.39,2022-9-11T10:23:46Z
2022-09-11T08:24:57Z,42.805,6.029,13.3027,4.60092,2470.366,2022-9-11T10:26:49Z
2022-09-11T08:28:01Z,42.805,6.029,13.3008,4.60088,2470.404,2022-9-11T10:29:53Z
2022-09-11T08:31:04Z,42.805,6.029,13.3010,4.60081,2470.427,2022-9-11T10:32:56Z
2022-09-11T08:34:07Z,42.805,6.029,13.3003,4.60058,2470.357,2022-9-11T10:35:59Z
2022-09-11T08:37:10Z,42.805,6.029,13.3011,4.60060,2470.343,2022-9-11T10:39:02Z
2022-09-11T08:40:13Z,42.805,6.029,13.3007,4.60062,2470.427,2022-9-11T10:42:05Z
2022-09-11T08:43:16Z,42.805,6.029,13.3010,4.60062,2470.39,2022-9-11T10:45:08Z
2022-09-11T08:46:19Z,42.805,6.029,13.3009,4.60057,2470.427,2022-9-11T10:48:11Z
2022-09-11T08:49:22Z,42.805,6.029,13.3009,4.60053,2470.404,2022-9-11T10:51:14Z
2022-09-11T08:52:26Z,42.805,6.029,13.3007,4.60054,2470.39,2022-9-11T10:54:17Z
2022-09-11T08:55:29Z,42.805,6.029,13.3008,4.60056,2470.38,2022-9-11T10:57:21Z
2022-09-11T08:58:32Z,42.805,6.029,13.3006,4.60054,2470.39,2022-9-11T11:00:24Z
2022-09-11T09:01:35Z,42.805,6.029,13.3007,4.60052,2470.38,2022-9-11T11:03:27Z
2022-09-11T09:04:38Z,42.805,6.029,13.3006,4.60052,2470.38,2022-9-11T11:06:30Z
2022-09-11T09:07:41Z,42.805,6.029,13.3012,4.60052,2470.404,2022-9-11T11:09:33Z
2022-09-11T09:10:44Z,42.805,6.029,13.3009,4.60052,2470.404,2022-9-11T11:12:36Z
2022-09-11T09:13:47Z,42.805,6.029,13.3010,4.60056,2470.404,2022-9-11T11:15:39Z
2022-09-11T09:16:51Z,42.805,6.029,13.3006,4.60054,2470.39,2022-9-11T11:18:43Z
2022-09-11T09:19:54Z,42.805,6.029,13.3006,4.60057,2470.38,2022-9-11T11:21:46Z
2022-09-11T09:22:57Z,42.805,6.029,13.3008,4.60054,2470.38,2022-9-11T11:24:49Z
2022-09-11T09:26:00Z,42.805,6.029,13.3009,4.60054,2470.404,2022-9-11T11:27:52Z
2022-09-11T09:29:03Z,42.805,6.029,13.3008,4.60054,2470.366,2022-9-11T11:30:55Z
2022-09-11T09:32:06Z,42.805,6.029,13.3006,4.60056,2470.343,2022-9-11T11:33:58Z
2022-09-11T09:35:09Z,42.805,6.029,13.3009,4.60053,2470.366,2022-9-11T11:37:01Z
2022-09-11T09:38:12Z,42.805,6.029,13.3006,4.60057,2470.38,2022-9-11T11:40:04Z
2022-09-11T09:41:16Z,42.805,6.029,13.3009,4.60055,2470.334,2022-9-11T11:43:08Z
2022-09-11T09:44:19Z,42.805,6.029,13.3009,4.60054,2470.366,2022-9-11T11:46:11Z
2022-09-11T09:47:22Z,42.805,6.029,13.3007,4.60054,2470.366,2022-9-11T11:49:14Z
2022-09-11T09:50:25Z,42.805,6.029,13.3009,4.60054,2470.32,2022-9-11T11:52:17Z
2022-09-11T09:53:28Z,42.805,6.029,13.3009,4.60055,2470.297,2022-9-11T11:55:20Z
2022-09-11T09:56:31Z,42.805,6.029,13.3008,4.60059,2470.357,2022-9-11T11:58:23Z
2022-09-11T09:59:34Z,42.805,6.029,13.3009,4.60060,2470.343,2022-9-11T12:01:26Z
2022-09-11T10:02:37Z,42.805,6.029,13.3005,4.60055,2470.297,2022-9-11T12:04:29Z
2022-09-11T10:05:41Z,42.805,6.029,13.3010,4.60057,2470.32,2022-9-11T12:07:33Z
2022-09-11T10:08:44Z,42.805,6.029,13.3012,4.60061,2470.32,2022-9-11T12:10:36Z
2022-09-11T10:11:47Z,42.805,6.029,13.3007,4.60061,2470.334,2022-9-11T12:13:39Z
2022-09-11T10:14:50Z,42.805,6.029,13.3008,4.60054,2470.343,2022-9-11T12:16:42Z
2022-09-11T10:17:53Z,42.805,6.029,13.3007,4.60054,2470.32,2022-9-11T12:19:45Z
2022-09-11T10:20:56Z,42.805,6.029,13.3008,4.60057,2470.32,2022-9-11T12:22:48Z
2022-09-11T10:23:59Z,42.805,6.029,13.3006,4.60056,2470.334,2022-9-11T12:25:51Z
2022-09-11T10:27:02Z,42.805,6.029,13.3010,4.60054,2470.273,2022-9-11T12:28:54Z
2022-09-11T10:30:06Z,42.805,6.029,13.3006,4.60052,2470.334,2022-9-11T12:31:58Z
2022-09-11T10:33:09Z,42.805,6.029,13.3007,4.60053,2470.31,2022-9-11T12:35:01Z
2022-09-11T10:36:12Z,42.805,6.029,13.3006,4.60053,2470.297,2022-9-11T12:38:04Z
2022-09-11T10:39:15Z,42.805,6.029,13.3007,4.60053,2470.334,2022-9-11T12:41:07Z
2022-09-11T10:42:18Z,42.805,6.029,13.3010,4.60055,2470.297,2022-9-11T12:44:10Z
2022-09-11T10:45:21Z,42.805,6.029,13.3009,4.60059,2470.297,2022-9-11T12:47:13Z
2022-09-11T10:48:24Z,42.805,6.029,13.3006,4.60053,2470.297,2022-9-11T12:50:16Z
2022-09-11T10:51:27Z,42.805,6.029,13.3004,4.60053,2470.297,2022-9-11T12:53:19Z
2022-09-11T10:54:31Z,42.805,6.029,13.3006,4.60054,2470.297,2022-9-11T12:56:23Z
2022-09-11T10:57:34Z,42.805,6.029,13.3006,4.60057,2470.32,2022-9-11T12:59:26Z
2022-09-11T11:00:37Z,42.805,6.029,13.3006,4.60053,2470.297,2022-9-11T13:02:29Z
2022-09-11T11:03:40Z,42.805,6.029,13.3006,4.60053,2470.287,2022-9-11T13:05:32Z
2022-09-11T11:06:43Z,42.805,6.029,13.3009,4.60052,2470.297,2022-9-11T13:08:35Z
2022-09-11T11:09:46Z,42.805,6.029,13.3008,4.60053,2470.32,2022-9-11T13:11:38Z
2022-09-11T11:12:49Z,42.805,6.029,13.3009,4.60060,2470.297,2022-9-11T13:14:41Z
2022-09-11T11:15:52Z,42.805,6.029,13.3006,4.60057,2470.31,2022-9-11T13:17:44Z
2022-09-11T11:18:56Z,42.805,6.029,13.3014,4.60055,2470.31,2022-9-11T13:20:48Z
2022-09-11T11:21:59Z,42.805,6.029,13.3009,4.60053,2470.273,2022-9-11T13:23:51Z
2022-09-11T11:25:02Z,42.805,6.029,13.3008,4.60052,2470.297,2022-9-11T13:26:54Z
2022-09-11T11:28:05Z,42.805,6.029,13.3006,4.60055,2470.32,2022-9-11T13:29:57Z
2022-09-11T11:31:08Z,42.805,6.029,13.3006,4.60054,2470.273,2022-9-11T13:33:00Z
2022-09-11T11:34:11Z,42.805,6.029,13.3006,4.60053,2470.31,2022-9-11T13:36:03Z
2022-09-11T11:37:14Z,42.805,6.029,13.3006,4.60051,2470.25,2022-9-11T13:39:06Z
2022-09-11T11:40:17Z,42.805,6.029,13.3004,4.60052,2470.31,2022-9-11T13:42:09Z
2022-09-11T11:43:21Z,42.805,6.029,13.3006,4.60052,2470.297,2022-9-11T13:45:13Z
2022-09-11T11:46:24Z,42.805,6.029,13.3006,4.60053,2470.25,2022-9-11T13:48:16Z
2022-09-11T11:49:27Z,42.805,6.029,13.3010,4.60052,2470.273,2022-9-11T13:51:19Z
2022-09-11T11:52:30Z,42.805,6.029,13.3008,4.60052,2470.287,2022-9-11T13:54:22Z
2022-09-11T11:55:33Z,42.805,6.029,13.3008,4.60057,2470.273,2022-9-11T13:57:25Z
2022-09-11T11:58:36Z,42.805,6.029,13.3008,4.60052,2470.31,2022-9-11T14:00:28Z
2022-09-11T12:01:39Z,42.805,6.029,13.3010,4.60055,2470.264,2022-9-11T14:03:31Z
2022-09-11T12:04:42Z,42.805,6.029,13.3009,4.60050,2470.25,2022-9-11T14:06:34Z
2022-09-11T12:07:46Z,42.805,6.029,13.3007,4.60049,2470.25,2022-9-11T14:09:38Z
2022-09-11T12:10:49Z,42.805,6.029,13.3006,4.60051,2470.25,2022-9-11T14:12:41Z
2022-09-11T12:13:52Z,42.805,6.029,13.3006,4.60052,2470.287,2022-9-11T14:15:44Z
2022-09-11T12:16:55Z,42.805,6.029,13.3008,4.60054,2470.25,2022-9-11T14:18:47Z
2022-09-11T12:19:58Z,42.805,6.029,13.3006,4.60052,2470.25,2022-9-11T14:21:50Z
2022-09-11T12:23:01Z,42.805,6.029,13.3007,4.60052,2470.287,2022-9-11T14:24:53Z
2022-09-11T12:26:04Z,42.805,6.029,13.3009,4.60049,2470.25,2022-9-11T14:27:56Z
2022-09-11T12:29:07Z,42.805,6.029,13.3008,4.60052,2470.273,2022-9-11T14:30:59Z
2022-09-11T12:32:11Z,42.805,6.029,13.3006,4.60052,2470.25,2022-9-11T14:34:03Z
2022-09-11T12:35:14Z,42.805,6.029,13.3008,4.60055,2470.227,2022-9-11T14:37:06Z
2022-09-11T12:38:17Z,42.805,6.029,13.3007,4.60052,2470.227,2022-9-11T14:40:09Z
2022-09-11T12:41:20Z,42.805,6.029,13.3005,4.60058,2470.25,2022-9-11T14:43:12Z
2022-09-11T12:44:23Z,42.805,6.029,13.3008,4.60058,2470.203,2022-9-11T14:46:15Z
2022-09-11T12:47:26Z,42.805,6.029,13.3011,4.60050,2470.203,2022-9-11T14:49:18Z
2022-09-11T12:50:29Z,42.805,6.029,13.3009,4.60054,2470.227,2022-9-11T14:52:21Z
2022-09-11T12:53:33Z,42.805,6.029,13.3009,4.60052,2470.227,2022-9-11T14:55:24Z
2022-09-11T12:56:36Z,42.805,6.029,13.3006,4.60055,2470.24,2022-9-11T14:58:28Z
2022-09-11T12:59:39Z,42.805,6.029,13.3003,4.60066,2470.213,2022-9-11T15:01:31Z
2022-09-11T13:02:42Z,42.805,6.029,13.3007,4.60054,2470.25,2022-9-11T15:04:34Z
2022-09-11T13:05:45Z,42.805,6.029,13.3009,4.60061,2470.24,2022-9-11T15:07:37Z
2022-09-11T13:08:48Z,42.805,6.029,13.3007,4.60065,2470.227,2022-9-11T15:10:40Z
2022-09-11T13:11:51Z,42.805,6.029,13.3010,4.60071,2470.217,2022-9-11T15:13:43Z
2022-09-11T13:14:54Z,42.805,6.029,13.3004,4.60057,2470.25,2022-9-11T15:16:46Z
2022-09-11T13:17:58Z,42.805,6.029,13.3006,4.60058,2470.227,2022-9-11T15:19:49Z
2022-09-11T13:21:01Z,42.805,6.029,13.3006,4.60059,2470.227,2022-9-11T15:22:53Z
2022-09-11T13:24:04Z,42.805,6.029,13.3006,4.60058,2470.203,2022-9-11T15:25:56Z
2022-09-11T13:27:07Z,42.805,6.029,13.3008,4.60052,2470.25,2022-9-11T15:28:59Z
2022-09-11T13:30:10Z,42.805,6.029,13.3008,4.60057,2470.203,2022-9-11T15:32:02Z
2022-09-11T13:33:13Z,42.805,6.029,13.3005,4.60052,2470.236,2022-9-11T15:35:05Z
2022-09-11T13:36:16Z,42.805,6.029,13.3006,4.60061,2470.25,2022-9-11T15:38:08Z
2022-09-11T13:39:19Z,42.805,6.029,13.3006,4.60054,2470.227,2022-9-11T15:41:11Z
2022-09-11T13:42:23Z,42.805,6.029,13.3006,4.60057,2470.227,2022-9-11T15:44:15Z
2022-09-11T13:45:26Z,42.805,6.029,13.3010,4.60057,2470.227,2022-9-11T15:47:18Z
2022-09-11T13:48:29Z,42.805,6.029,13.3006,4.60052,2470.227,2022-9-11T15:50:21Z
2022-09-11T13:51:32Z,42.805,6.029,13.3003,4.60053,2470.217,2022-9-11T15:53:24Z
2022-09-11T13:54:35Z,42.805,6.029,13.3006,4.60072,2470.203,2022-9-11T15:56:27Z
2022-09-11T13:57:38Z,42.805,6.029,13.3006,4.60058,2470.227,2022-9-11T15:59:30Z
2022-09-11T14:00:41Z,42.805,6.029,13.3006,4.60057,2470.217,2022-9-11T16:02:33Z
2022-09-11T14:03:44Z,42.805,6.029,13.3005,4.60059,2470.24,2022-9-11T16:05:36Z
2022-09-11T14:06:48Z,42.805,6.029,13.3006,4.60064,2470.203,2022-9-11T16:08:40Z
2022-09-11T14:09:51Z,42.805,6.029,13.3006,4.60069,2470.24,2022-9-11T16:11:43Z
2022-09-11T14:12:54Z,42.805,6.029,13.3009,4.60058,2470.189,2022-9-11T16:14:46Z
2022-09-11T14:15:57Z,42.805,6.029,13.3007,4.60062,2470.217,2022-9-11T16:17:49Z
2022-09-11T14:19:00Z,42.805,6.029,13.3006,4.60064,2470.227,2022-9-11T16:20:52Z
2022-09-11T14:22:03Z,42.805,6.029,13.3011,4.60064,2470.203,2022-9-11T16:23:55Z
2022-09-11T14:25:06Z,42.805,6.029,13.3008,4.60059,2470.227,2022-9-11T16:26:58Z
2022-09-11T14:28:09Z,42.805,6.029,13.3007,4.60069,2470.24,2022-9-11T16:30:01Z
2022-09-11T14:31:13Z,42.805,6.029,13.3008,4.60063,2470.227,2022-9-11T16:33:05Z
2022-09-11T14:34:16Z,42.805,6.029,13.3004,4.60070,2470.203,2022-9-11T16:36:08Z
2022-09-11T14:37:19Z,42.805,6.029,13.3010,4.60070,2470.203,2022-9-11T16:39:11Z
2022-09-11T14:40:22Z,42.805,6.029,13.3005,4.60062,2470.217,2022-9-11T16:42:14Z
2022-09-11T14:43:25Z,42.805,6.029,13.3009,4.60064,2470.227,2022-9-11T16:45:17Z
2022-09-11T14:46:28Z,42.805,6.029,13.3002,4.60071,2470.217,2022-9-11T16:48:20Z
2022-09-11T14:49:31Z,42.805,6.029,13.3004,4.60070,2470.227,2022-9-11T16:51:23Z
2022-09-11T14:52:34Z,42.805,6.029,13.3006,4.60073,2470.227,2022-9-11T16:54:26Z
2022-09-11T14:55:38Z,42.805,6.029,13.3011,4.60072,2470.227,2022-9-11T16:57:30Z
2022-09-11T14:58:41Z,42.805,6.029,13.3008,4.60077,2470.227,2022-9-11T17:00:33Z
2022-09-11T15:01:44Z,42.805,6.029,13.3007,4.60078,2470.24,2022-9-11T17:03:36Z
2022-09-11T15:04:47Z,42.805,6.029,13.3006,4.60079,2470.264,2022-9-11T17:06:39Z
2022-09-11T15:07:50Z,42.805,6.029,13.3006,4.60081,2470.203,2022-9-11T17:09:42Z
2022-09-11T15:10:53Z,42.805,6.029,13.3008,4.60085,2470.227,2022-9-11T17:12:45Z
2022-09-11T15:13:56Z,42.805,6.029,13.3008,4.60072,2470.227,2022-9-11T17:15:48Z